Home > Weather > Wittenberge > Past weeks

Flag for Germany Past Weather in Wittenberge, Mecklenburg-Western Pomerania, Germany — Yesterday and Last 2 Weeks

Now
86 °F

Passing clouds.


Feels Like: 85 °F
Forecast: 62 / 77 °F
Wind: 8 mph from West

Location: Mecklenburg-Vorpommern - Parchim

Current Time: Jul 25, 2016 at 1:59:47 PM

Latest Report: Jul 25, 2016 at 1:20 PM


Visibility: N/A

Pressure: 30.01 "Hg

Humidity: 40%

Dew Point: 59 °F

Location of WittenbergeLocation

Past Weather in Wittenberge — Graph

°F

Wittenberge Temperature Yesterday

Maximum temperature yesterday: 82 °F (at 2:20 PM)
Minimum temperature yesterday: 64 °F (at 6:20 AM)
Average temperature yesterday: 76 °F

High & Low Weather Summary for the Past Weeks

 TemperatureHumidityPressure
High86 °F (Jul 21, 5:20 PM)100% (Jul 13, 6:20 AM)30.21 "Hg (Jul 13, 6:20 AM)
Low48 °F (Jul 16, 6:20 AM)25% (Jul 22, 3:20 PM)29.71 "Hg (Jul 11, 6:20 AM)
Average70 °F65%30.02 "Hg
* Reported Jul 10 12:20 PM — Jul 25 12:20 PM, Wittenberge, Weather by CustomWeather, © 2016

Note: Actual official high and low records may vary slightly from our data, if they occured in-between our weather recording intervals... More about our weather records

Advertising

Wittenberge Weather History for the Previous 24 Hours

Scroll right to see more
 ConditionsComfort  
Time TempWeatherWind HumidityBarometerVisibility
12:20 PM
Mon, Jul 25
82 °FPassing clouds.7 mph45%30.04 "HgN/A
11:50 AM81 °FPassing clouds.6 mph48%30.04 "HgN/A
11:20 AM82 °FPassing clouds.6 mph48%30.04 "HgN/A
10:50 AM82 °FSunny.3 mph48%30.04 "Hg10 mi
10:20 AM82 °FSunny.2 mph51%30.04 "Hg10 mi
9:50 AM81 °FSunny.3 mph54%30.04 "Hg10 mi
9:20 AM77 °FSunny.2 mph57%30.04 "Hg10 mi
8:50 AM75 °FSunny.1 mph65%30.04 "Hg10 mi
7:50 AM72 °FSunny.2 mph73%30.04 "Hg10 mi
7:20 AM66 °FSunny.2 mph88%30.04 "Hg10 mi
6:50 AM63 °FSunny.2 mph100%30.04 "Hg10 mi
6:20 AM61 °FPassing clouds.3 mph100%30.04 "HgN/A
6:50 PM
Sun, Jul 24
82 °FPassing clouds.7 mph42%30.07 "HgN/A
6:20 PM82 °FSunny.5 mph40%30.07 "Hg10 mi
5:50 PM82 °FSunny.5 mph40%30.07 "Hg10 mi
5:20 PM82 °FSunny.2 mph37%30.07 "Hg10 mi
4:50 PM82 °FPassing clouds.7 mph40%30.07 "HgN/A
4:20 PM82 °FPassing clouds.9 mph40%30.07 "HgN/A
3:50 PM82 °FSunny.7 mph42%30.07 "Hg10 mi
3:20 PM82 °FPassing clouds.7 mph45%30.09 "HgN/A
2:50 PM82 °FPassing clouds.6 mph45%30.09 "HgN/A
2:20 PM82 °FSunny.3 mph48%30.09 "Hg10 mi
1:50 PM81 °FSunny.5 mph48%30.09 "Hg10 mi
1:20 PM79 °FPassing clouds.6 mph51%30.09 "HgN/A
Weather by CustomWeather, © 2016

See weather overviewHow to use our weather pages